Regional Weather Roundup
Issued by NWS

Home | Current Version | Previous Version | Text Only | Print | Product List | Glossary Off
Versions: 1 2 3 4 5 6 7 8 9 10 11 12 13 14 15 16 17 18 19 20 21 22 23 24 25 26 27 28 29 30 31 32 33 34 35 36 37 38 39 40 41 42 43 44 45 46 47 48 49 50

000
ASUS43 KBIS 200410
RWRND

NORTH DAKOTA REGIONAL WEATHER ROUNDUP
NATIONAL WEATHER SERVICE BISMARCK ND
1100 PM CDT TUE AUG 19 2014

NOTE: "FAIR" INDICATES FEW OR NO CLOUDS BELOW 12,000 FEET WITH NO
SIGNIFICANT WEATHER AND/OR OBSTRUCTIONS TO VISIBILITY.


NDZ001>003-009>011-017-200500-
NORTHWEST NORTH DAKOTA

CITY           SKY/WX    TMP DP  RH WIND       PRES   REMARKS
WILLISTON      CLEAR     78  60  53 SE12      29.65S
MINOT          CLEAR     67  60  78 E5        29.70F
MINOT AFB      CLEAR     65  64  96 SE6       29.70S
$$

NDZ018>021-031>035-040>046-200500-
SOUTHWEST NORTH DAKOTA

CITY           SKY/WX    TMP DP  RH WIND       PRES   REMARKS
BISMARCK       PTCLDY    69  63  81 E6        29.73R
DICKINSON      PTCLDY    68  59  73 SE8       29.70S
GARRISON         N/A     71  66  84 SE8       29.72R
HETTINGER ARPT PTCLDY    72  57  59 E9        29.74S
$$

NDZ004>008-012>016-024-026-027-054-200500-
NORTHEAST NORTH DAKOTA

CITY           SKY/WX    TMP DP  RH WIND       PRES   REMARKS
GRAND FORKS    CLEAR     70  64  81 SE7       29.75S
GRND FRKS AFB  CLEAR     69  67  93 SE7       29.76S
DEVILS LAKE    CLEAR     72  64  78 SE9       29.74S
$$

NDZ022-023-025-028>030-036>039-047>053-200500-
SOUTHEAST NORTH DAKOTA

CITY           SKY/WX    TMP DP  RH WIND       PRES   REMARKS
FARGO          CLEAR     70  64  81 SE5       29.76S
JAMESTOWN      CLEAR     67  63  87 S3        29.76S
$$




USA.gov is the U.S. government's official web portal to all federal, state and local government web resources and services.